This is the latest recevied weather packets stored in our database for station/object SQ5LTL-2. If no packets are shown the sender has not sent any weather packets the latest 10 day(s).
| Time | Temp. | Humidity | Pressure | Rain* | Wind** | Luminosity | Snow |
|---|---|---|---|---|---|---|---|
| 1777890932 | 25.56° C | 23% | 1014.9 hPa | 0 mm | - | 566 W/m² | - |
| 1777890630 | 25.56° C | 22% | 1015.1 hPa | 0 mm | - | 570 W/m² | - |
| 1777890028 | 25.56° C | 21% | 1015.2 hPa | 0 mm | - | 579 W/m² | - |
| 1777889726 | 25.56° C | 23% | 1015.3 hPa | 0 mm | - | 576 W/m² | - |
| 1777889425 | 25.56° C | 23% | 1015.3 hPa | 0 mm | - | 579 W/m² | - |
| 1777889123 | 25.56° C | 23% | 1015.5 hPa | 0 mm | - | 580 W/m² | - |
| 1777888520 | 25° C | 24% | 1015.5 hPa | 0 mm | - | 568 W/m² | - |
| 1777888218 | 25° C | 24% | 1015.6 hPa | 0 mm | - | 526 W/m² | - |
| 1777887615 | 25.56° C | 24% | 1015.8 hPa | 0 mm | - | 557 W/m² | - |
| 1777887334 | 25° C | 26% | 1015.8 hPa | 0 mm | - | 558 W/m² | - |
| 1777887033 | 25° C | 26% | 1015.8 hPa | 0 mm | - | 576 W/m² | - |
| 1777886732 | 25° C | 27% | 1015.9 hPa | 0 mm | - | 517 W/m² | - |
| 1777886430 | 25° C | 28% | 1015.8 hPa | 0 mm | - | 568 W/m² | - |
| 1777886128 | 24.44° C | 28% | 1015.9 hPa | 0 mm | - | 600 W/m² | - |
| 1777885828 | 25° C | 28% | 1015.8 hPa | 0 mm | - | 591 W/m² | - |
| 1777885524 | 25° C | 28% | 1015.9 hPa | 0 mm | - | 583 W/m² | - |
| 1777885223 | 24.44° C | 28% | 1016 hPa | 0 mm | - | 572 W/m² | - |
| 1777884922 | 24.44° C | 28% | 1016 hPa | 0 mm | - | 563 W/m² | - |
| 1777884620 | 24.44° C | 29% | 1016 hPa | 0 mm | - | 551 W/m² | - |
| 1777884319 | 23.89° C | 30% | 1016 hPa | 0 mm | - | 541 W/m² | - |
| 1777884017 | 23.89° C | 30% | 1016 hPa | 0 mm | - | 529 W/m² | - |
| 1777883716 | 24.44° C | 29% | 1016 hPa | 0 mm | - | 508 W/m² | - |
| 1777883434 | 23.89° C | 30% | 1016 hPa | 0 mm | - | 511 W/m² | - |
| 1777883133 | 23.89° C | 30% | 1016 hPa | 0 mm | - | 502 W/m² | - |
| 1777882832 | 23.89° C | 30% | 1015.9 hPa | 0 mm | - | 493 W/m² | - |
* Rain latest hour (hover to see other rain measurements)
** Current wind speed in m/s (hover to see current wind gust speed)